Crosby, ND

5:13 AM CST on December 07, 2019 (GMT -0600)
Crosby

Weather History for KD50 - August, 2019

Change the Weather History Date:

Thursday, August 29, 2019

  Actual Average (WUND) Record (WUND)
Temperature  
Mean Temperature 58 °F -  
Max Temperature 69 °F - - (-1)
Min Temperature 46 °F - - (-1)
Degree Days  
Heating Degree Days 8    
Growing Degree Days 8 (Base 50)    
Moisture  
Dew Point 43 °F    
Average Humidity 62    
Maximum Humidity 93    
Minimum Humidity 35    
Precipitation  
Precipitation 0.00 in - - ()
Sea Level Pressure  
Sea Level Pressure 30.06 in    
Wind  
Wind Speed 14 mph (NW)    
Max Wind Speed 20 mph    
Max Gust Speed 28 mph    
Visibility 10 miles    
Events      
Averages and records for this station are not official NWS values.
T = Trace of Precipitation, MM = Missing Value Source: NWS Daily Summary

Daily Weather History Graph

Daily Weather History Graph

Search for Another Location

Airport or City:

Astronomy

Aug. 29, 2019 Rise Set
Actual Time 7:05 AM CDT 8:41 PM CDT
Civil Twilight 6:32 AM CDT 9:14 PM CDT
Nautical Twilight 5:51 AM CDT 9:55 PM CDT
Astronomical Twilight 5:07 AM CDT 10:39 PM CDT
Moon 5:42 AM CDT (8/29) 8:47 PM CDT (8/29)
Length of Visible Light 14h 42m
Length of Day
13h 36m
Waning Crescent, 1% of the Moon is Illuminated
Aug 29
Waning Crescent
Aug 30
New
Sep 5
First Quarter
Sep 13
Full
Sep 21
Last Quarter

Hourly Weather History & Observations

Time (CDT) Temp. Windchill Dew Point Humidity Pressure Visibility Wind Dir Wind Speed Gust Speed Precip Events Conditions
12:15 AM 59.0 °F - 41.0 °F 51% 29.89 in 10.0 mi NW 19.6 mph - N/A   Clear
2:15 AM 51.8 °F - 41.0 °F 67% 29.92 in 10.0 mi NW 13.8 mph - N/A   Clear
2:35 AM 51.8 °F - 41.0 °F 67% 29.92 in 10.0 mi NW 13.8 mph - N/A   Clear
2:55 AM 51.8 °F - 41.0 °F 67% 29.92 in 10.0 mi NW 13.8 mph - N/A   Clear
3:15 AM 50.0 °F - 41.0 °F 71% 29.92 in 10.0 mi WNW 10.4 mph - N/A   Clear
3:35 AM 50.0 °F - 41.0 °F 71% 29.93 in 10.0 mi NW 10.4 mph - N/A   Clear
3:55 AM 48.2 °F - 42.8 °F 82% 29.95 in 10.0 mi WNW 9.2 mph - N/A   Clear
4:15 AM 48.2 °F - 42.8 °F 82% 29.96 in 10.0 mi WNW 11.5 mph - N/A   Clear
4:35 AM 50.0 °F - 42.8 °F 76% 29.97 in 10.0 mi West 12.7 mph - N/A   Clear
4:55 AM 50.0 °F - 42.8 °F 76% 29.98 in 10.0 mi WNW 13.8 mph - N/A   Clear
5:15 AM 48.2 °F - 42.8 °F 82% 29.99 in 10.0 mi West 11.5 mph - N/A   Clear
5:35 AM 48.2 °F - 44.6 °F 87% 30.00 in 10.0 mi West 12.7 mph - N/A   Clear
5:55 AM 48.2 °F - 44.6 °F 87% 30.01 in 10.0 mi West 12.7 mph - N/A   Clear
6:15 AM 46.4 °F 40.7 °F 44.6 °F 93% 30.02 in 10.0 mi West 12.7 mph - N/A   Clear
6:35 AM 48.2 °F - 44.6 °F 87% 30.02 in 10.0 mi WNW 12.7 mph 19.6 mph N/A   Clear
6:55 AM 46.4 °F 41.1 °F 44.6 °F 93% 30.03 in 10.0 mi WNW 11.5 mph - N/A   Clear
7:15 AM 46.4 °F 41.1 °F 44.6 °F 93% 30.04 in 10.0 mi WNW 11.5 mph - N/A   Clear
7:35 AM 46.4 °F 41.1 °F 44.6 °F 93% 30.05 in 10.0 mi WNW 11.5 mph - N/A   Clear
7:55 AM 48.2 °F - 46.4 °F 93% 30.06 in 10.0 mi West 10.4 mph 16.1 mph N/A   Clear
8:15 AM 50.0 °F - 46.4 °F 87% 30.06 in 10.0 mi WNW 11.5 mph 18.4 mph N/A   Clear
8:35 AM 51.8 °F - 46.4 °F 82% 30.07 in 10.0 mi WNW 12.7 mph - N/A   Clear
8:55 AM 51.8 °F - 46.4 °F 82% 30.07 in 10.0 mi NW 15.0 mph 23.0 mph N/A   Partly Cloudy
9:15 AM 53.6 °F - 46.4 °F 77% 30.08 in 10.0 mi NW 19.6 mph - N/A   Clear
9:35 AM 55.4 °F - 46.4 °F 72% 30.08 in 10.0 mi NW 16.1 mph 23.0 mph N/A   Clear
9:55 AM 55.4 °F - 46.4 °F 72% 30.08 in 10.0 mi NNW 17.3 mph - N/A   Clear
10:15 AM 57.2 °F - 46.4 °F 67% 30.08 in 10.0 mi NW 13.8 mph 23.0 mph N/A   Partly Cloudy
10:35 AM 59.0 °F - 46.4 °F 63% 30.09 in 10.0 mi NW 16.1 mph 23.0 mph N/A   Partly Cloudy
10:55 AM 60.8 °F - 46.4 °F 59% 30.09 in 10.0 mi NNW 19.6 mph 27.6 mph N/A   Scattered Clouds
11:15 AM 60.8 °F - 46.4 °F 59% 30.09 in 10.0 mi NNW 17.3 mph 24.2 mph N/A   Scattered Clouds
11:35 AM 62.6 °F - 46.4 °F 55% 30.10 in 10.0 mi NNW 15.0 mph 25.3 mph N/A   Scattered Clouds
11:55 AM 62.6 °F - 44.6 °F 52% 30.10 in 10.0 mi NNW 18.4 mph 25.3 mph N/A   Partly Cloudy
12:15 PM 64.4 °F - 44.6 °F 49% 30.10 in 10.0 mi NNW 19.6 mph - N/A   Clear
12:35 PM 64.4 °F - 44.6 °F 49% 30.10 in 10.0 mi NNW 19.6 mph 26.5 mph N/A   Partly Cloudy
1:15 PM 64.4 °F - 44.6 °F 49% 30.10 in 10.0 mi NNW 16.1 mph 23.0 mph N/A   Scattered Clouds
1:35 PM 66.2 °F - 42.8 °F 43% 30.10 in 10.0 mi NW 16.1 mph 21.9 mph N/A   Scattered Clouds
1:55 PM 66.2 °F - 42.8 °F 43% 30.10 in 10.0 mi NNW 15.0 mph 21.9 mph N/A   Partly Cloudy
2:15 PM 66.2 °F - 42.8 °F 43% 30.10 in 10.0 mi WNW 13.8 mph - N/A   Scattered Clouds
2:35 PM 68.0 °F - 42.8 °F 40% 30.10 in 10.0 mi NNW 12.7 mph 20.7 mph N/A   Mostly Cloudy
2:55 PM 68.0 °F - 42.8 °F 40% 30.10 in 7.0 mi NW 12.7 mph 20.7 mph N/A   Mostly Cloudy
3:15 PM 69.8 °F - 42.8 °F 38% 30.09 in 6.0 mi NW 11.5 mph 19.6 mph N/A   Haze
3:35 PM 69.8 °F - 41.0 °F 35% 30.10 in 6.0 mi NW 15.0 mph 24.2 mph N/A   Haze
3:55 PM 69.8 °F - 41.0 °F 35% 30.10 in 2.0 mi NW 16.1 mph 24.2 mph N/A   Haze
4:15 PM 68.0 °F - 41.0 °F 37% 30.09 in 10.0 mi NNW 13.8 mph - N/A   Partly Cloudy
4:35 PM 68.0 °F - 41.0 °F 37% 30.09 in 10.0 mi NW 19.6 mph - N/A   Partly Cloudy
4:55 PM 68.0 °F - 39.2 °F 35% 30.09 in 10.0 mi NW 15.0 mph 20.7 mph N/A   Clear
5:15 PM 68.0 °F - 39.2 °F 35% 30.08 in 10.0 mi WNW 18.4 mph - N/A   Clear
5:35 PM 68.0 °F - 41.0 °F 37% 30.08 in 10.0 mi NNW 16.1 mph - N/A   Clear
5:55 PM 68.0 °F - 41.0 °F 37% 30.09 in 10.0 mi NW 15.0 mph 24.2 mph N/A   Clear
6:15 PM 68.0 °F - 41.0 °F 37% 30.08 in 10.0 mi NNW 13.8 mph 19.6 mph N/A   Partly Cloudy
6:35 PM 68.0 °F - 39.2 °F 35% 30.09 in 10.0 mi NW 12.7 mph - N/A   Partly Cloudy
6:55 PM 68.0 °F - 41.0 °F 37% 30.09 in 10.0 mi NW 15.0 mph - N/A   Clear
7:15 PM 66.2 °F - 39.2 °F 37% 30.09 in 10.0 mi NW 12.7 mph 18.4 mph N/A   Clear
7:35 PM 66.2 °F - 41.0 °F 40% 30.09 in 10.0 mi NW 10.4 mph - N/A   Clear
7:55 PM 64.4 °F - 41.0 °F 42% 30.10 in 10.0 mi NNW 9.2 mph - N/A   Clear
8:15 PM 62.6 °F - 41.0 °F 45% 30.10 in 10.0 mi NNW 6.9 mph - N/A   Clear
8:35 PM 59.0 °F - 41.0 °F 51% 30.10 in 10.0 mi NNW 5.8 mph - N/A   Clear
8:55 PM 57.2 °F - 41.0 °F 55% 30.10 in 10.0 mi NNW 3.5 mph - N/A   Clear
9:15 PM 53.6 °F - 41.0 °F 62% 30.11 in 10.0 mi NNW 3.5 mph - N/A   Clear
9:35 PM 50.0 °F - 41.0 °F 71% 30.12 in 10.0 mi NW 4.6 mph - N/A   Clear
9:55 PM 48.2 °F - 42.8 °F 82% 30.12 in 10.0 mi WNW 3.5 mph - N/A   Clear
10:15 PM 48.2 °F - 42.8 °F 82% 30.12 in 10.0 mi WNW 5.8 mph - N/A   Clear
10:35 PM 48.2 °F - 42.8 °F 82% 30.13 in 9.0 mi WNW 6.9 mph - N/A   Clear
10:55 PM 50.0 °F - 42.8 °F 76% 30.14 in 10.0 mi WNW 6.9 mph - N/A   Clear
11:15 PM 48.2 °F - 42.8 °F 82% 30.14 in 10.0 mi West 6.9 mph - N/A   Clear
11:35 PM 46.4 °F 43.5 °F 42.8 °F 87% 30.15 in 10.0 mi West 5.8 mph - N/A   Clear
11:55 PM 46.4 °F 43.5 °F 42.8 °F 87% 30.15 in 10.0 mi WNW 5.8 mph - N/A   Clear